This demonstration page uses our WeatherBlox Daily Observations layout. Learn more.

Left ArrowRight Arrow

44.89941, -97.11507

Hourly Observations for October 8, 2021

Temp ( °F °C ) Dew Point ( °F °C ) Humidity (%) Winds ( mph kmh ) Pressure ( in mb ) Visibility ( mi km ) Precip ( " mm )
12:53 am 00:53 Clear 61 16.1 57 13.9 87 87 SSE 9 15 29.94 1014 10 16 0.00 0.00
1:53 am 01:53 Clear 60 15.6 56 13.3 86 86 SSE 9 15 29.93 1014 10 16 0.00 0.00
2:53 am 02:53 Partly Cloudy 61 16.1 57 13.9 87 87 SSE 9 15 29.92 1013 10 16 0.00 0.00
3:53 am 03:53 Clear 59 15 56 13.3 90 90 SSE 9 15 29.91 1013 10 16 0.00 0.00
4:53 am 04:53 Clear 59 15 56 13.3 90 90 SSE 10 17 29.89 1012 10 16 0.00 0.00
5:53 am 05:53 Clear 59 15 56 13.3 90 90 SSE 13 20 29.89 1012 10 16 0.00 0.00
6:53 am 06:53 Clear 59 15 56 13.3 90 90 SSE 13 20 29.89 1012 10 16 0.00 0.00
7:53 am 07:53 Mostly Sunny 58 14.4 56 13.3 93 93 SSE 10 17 29.90 1013 10 16 0.00 0.00
8:53 am 08:53 Sunny 59 15 56 13.3 90 90 SSE 13 20 29.90 1013 10 16 0.00 0.00
9:53 am 09:53 Mostly Sunny 63 17.2 58 14.4 84 84 S 12 19 29.91 1013 10 16 0.00 0.00
10:53 am 10:53 Sunny 66 18.9 58 14.4 75 75 S 10 17 29.90 1013 10 16 0.00 0.00
11:53 am 11:53 Partly Cloudy 67 19.4 59 15 76 76 SSE 9 15 29.90 1012 10 16 0.00 0.00
12:53 pm 12:53 Sunny 73 22.8 60 15.6 64 64 S 7 11 29.87 1011 10 16 0.00 0.00
1:53 pm 13:53 Sunny 76 24.4 60 15.6 58 58 S 9 15 29.85 1011 10 16 0.00 0.00
2:53 pm 14:53 Sunny 79 26.1 59 15 50 50 S 9 15 29.81 1010 10 16 0.00 0.00
3:53 pm 15:53 Sunny 80 26.7 58 14.4 47 47 S 10 17 29.80 1009 10 16 0.00 0.00
4:53 pm 16:53 Sunny 79 26.1 57 13.9 47 47 SW 15 24 29.80 1009 10 16 0.00 0.00
5:53 pm 17:53 Sunny 77 25 57 13.9 50 50 SW 9 15 29.80 1009 10 16 0.00 0.00
6:53 pm 18:53 Sunny 67 19.4 57 13.9 71 71 SW 6 9 29.82 1010 10 16 0.00 0.00
7:53 pm 19:53 Clear 65 18.3 56 13.3 73 73 SW 5 7 29.83 1010 10 16 0.00 0.00
8:53 pm 20:53 Clear 64 17.8 56 13.3 75 75 Calm 29.83 1010 10 16 0.00 0.00
9:53 pm 21:53 Clear 60 15.6 55 12.8 84 84 SSE 5 7 29.83 1010 10 16 0.00 0.00
10:53 pm 22:53 Clear 56 13.3 53 11.7 90 90 Calm 29.83 1010 10 16 0.00 0.00
11:53 pm 23:53 Clear 58 14.4 54 12.2 87 87 Calm 29.83 1010 10 16 0.00 0.00

Powered by AerisWeather